Preview of NWS' New Version of Forecast
This preview is not operational and should not be used for support decisions.

Regional Weather Roundup (RWR)

Issued by Northern Indiana (IWX)

                            
881 
ASUS43 KIWX 212310
RWRIWX

KIWX WEATHER ROUNDUP
NATIONAL WEATHER SERVICE NORTHERN INDIANA
700 PM EDT THU JUN 21 2018

NOTE: "FAIR" INDICATES FEW OR NO CLOUDS BELOW 12,000 FEET WITH NO
SIGNIFICANT WEATHER AND/OR OBSTRUCTIONS TO VISIBILITY. 

* THESE STATIONS ARE NOT UNDER NWS QUALITY CONTROL. THEY ALSO MAY NOT 
  REPORT WEATHER SUCH AS PRECIPITATION OR FOG. 

INZ001>027-220000-
NORTHERN INDIANA
  
CITY           SKY/WX    TMP DP  RH WIND       PRES   REMARKS
GARY*          CLOUDY    68  66  94 E10       29.76S                  
VALPARAISO     CLOUDY    68  65  90 E14       29.76F FOG              
MICHIGAN CITY* FAIR      63  63 100 E6        29.78                   
LAPORTE*       CLOUDY    65  63  95 E10G17    29.77F                  
KNOX*          CLOUDY    64  63  94 E15G21    29.75F                  
SOUTH BEND     RAIN      63  62  97 NE8       29.79F FOG              
ELKHART*       LGT RAIN  64  63  94 NE12      29.79F                  
GOSHEN         LGT RAIN  65  63  93 E12       29.79F FOG              
MONTICELLO*    CLOUDY    67  66  95 E12       29.71F                  
LOGANSPORT*    LGT RAIN  66  64  94 E12G18    29.74S                  
ROCHESTER*     CLOUDY    68  64  88 E14G21    29.76S                  
WARSAW*        RAIN      63  63 100 E9        29.79S                  
AUBURN*        RAIN      63  63 100 CALM      29.81S                  
FORT WAYNE     RAIN      65  65 100 NE12      29.79S FOG              
HUNTINGTON*    LGT RAIN  65  64  95 E6        29.78S                  
PERU/GRISSOM   DRIZZLE   67  67 100 E13       29.73S                  
MARION*        LGT RAIN  66  66 100 E18G26    29.73F                  

$$
INZ028>050-220000-
CENTRAL INDIANA
  
CITY           SKY/WX    TMP DP  RH WIND       PRES   REMARKS
LAFAYETTE      CLOUDY    70  69  97 NE12      29.69S                  
KOKOMO*        LGT RAIN  67  66  97 E14       29.73F                  
MUNCIE*        RAIN      71  68  90 E8        29.75R FOG              
INDIANAPOLIS   PTSUNNY   75  67  76 NE10      29.70S                  

$$
MIZ043>046-050>051-056>058-064>065-071>073-077>080-220000-
SOUTHWEST LOWER MICHIGAN
  
CITY           SKY/WX    TMP DP  RH WIND       PRES   REMARKS
BATTLE CREEK   FAIR      74  56  53 E6        29.83S                  
BENTON HARBOR  RAIN      65  62  90 E14       29.78F FOG              
COLDWATER*     CLOUDY    72  53  51 E8        29.82R                  
HILLSDALE*     FAIR      70  54  56 E8        29.83S                  
HOLLAND        FAIR      74  59  59 E8        29.82F                  
GRAND RAPIDS   PTSUNNY   73  61  65 NE9       29.83F                  
KALAMAZOO      PTSUNNY   73  61  65 CALM      29.82F                  
STURGIS*       RAIN      66  63  89 NE6       29.81F                  
THREE RIVERS*  RAIN      67  60  78 S3        29.83R                  

$$
OHZ001>008-015>018-024>025-220000-
NORTHWEST OHIO
  
CITY           SKY/WX    TMP DP  RH WIND       PRES   REMARKS
WAUSEON*       FAIR      73  61  64 E12G21    29.81S                  
DEFIANCE       LGT RAIN  70  61  73 E9        29.80R                  
FINDLAY        LGT RAIN  73  65  75 NE10      29.78S                  
TOLEDO EXPRESS FAIR      73  57  57 E13       29.80S                  
TOLEDO METCALF FAIR      72  60  66 NE13G23   29.82R                  
LIMA           LGT RAIN  68  67  96 NE7       29.78F                  

$$
AND FOR LAKE MICHIGAN COASTAL AND OPEN LAKE BUOY OBSERVATIONS
  
STATION/POSITION TEMP    WIND        PRES    VSBY  WAVE
                 AIR SEA DIR/SP/G                  HT/PER
                 (F)     (DEG/KT/KT) (MB)    (MI)  (FT/S)
CALUMET HARBOR    64      50/  7/  9 1007.7R
MICHIGAN CITY     65      60/ 14/ 17   N/A
BURNS HARBOR      67      80/ 12/ 15 1008.1F
SAINT JOSEPH      64      40/  5/ 10 1008.8
SOUTH LAKE BUOY   65 62   60/  8/ 10 1008.7F         1/ 3
4 MI NW BRIDGMAN  65 66  270/ 19/ 27 1007.1          2/ 3
MICHIGAN CITY     66 67  100/ 14/ 19   N/A           3/ 4

$$
&&